ECMWFFLT2_925_spd_132.txt.gz
Wind_Speed
4 4 3 3 5 3 0 3 2 3 4 6 3 1 2 3 3 1 1 1 3 2 1 3 4 5 6 5 4 3 4 3 5 6 7 7 6 6 9 11 10 10 13 17 22 25 25 27 29 29 32 35 35 34 35 35 34 32 31 31 31 30 29
3 2 3 4 2 4 4 2 4 2 2 4 4 1 3 4 2 2 1 2 2 1 1 4 6 7 6 6 4 1 1 2 5 5 5 6 5 3 5 8 8 10 9 13 17 24 26 27 29 31 34 37 37 36 36 36 34 33 32 32 31 30 30
2 2 6 5 6 4 5 4 4 3 3 1 2 2 1 2 0 2 2 0 1 2 1 4 6 5 5 6 5 3 2 1 4 5 5 5 5 4 3 5 7 11 14 15 15 20 26 27 27 30 34 36 36 36 36 36 36 35 33 32 31 31 31
2 3 4 2 2 5 4 3 3 3 3 3 1 2 2 2 1 1 1 2 1 3 3 3 4 5 3 4 5 4 4 3 2 2 3 4 5 6 4 5 7 10 16 18 17 17 22 28 28 29 33 35 35 36 36 36 36 35 33 31 31 31 30
4 3 1 5 5 2 3 4 3 2 2 2 2 1 1 3 3 2 1 2 4 4 3 3 4 4 1 1 2 4 4 5 5 5 4 4 3 5 5 6 7 10 16 20 19 18 19 25 29 29 32 34 35 35 35 35 35 34 33 31 30 30 30
3 4 3 6 7 5 5 4 3 3 2 2 2 1 2 1 3 3 3 1 5 4 2 4 4 2 1 2 2 1 4 4 5 6 5 6 5 3 5 6 5 7 11 17 22 21 17 16 23 30 32 33 34 34 34 35 34 34 34 33 31 31 30
2 6 2 6 8 5 5 3 3 3 3 4 4 2 2 1 1 1 3 1 5 4 3 4 4 2 2 3 4 1 2 3 3 5 5 5 5 5 3 4 3 2 2 6 18 24 18 12 17 26 32 32 33 34 34 33 33 34 34 33 32 31 30
4 6 5 4 5 5 5 2 3 4 3 4 5 4 3 3 2 1 2 0 4 5 4 3 3 3 3 3 4 3 2 3 3 4 5 3 3 5 4 2 1 1 3 4 10 19 20 16 17 22 30 33 33 34 34 34 33 34 35 33 32 31 30
5 5 6 5 5 3 2 1 2 4 6 6 4 2 3 2 3 4 3 2 5 4 2 1 3 5 4 3 2 3 1 2 3 3 3 1 1 3 5 5 4 5 6 9 8 14 18 19 19 21 26 32 34 34 34 34 34 34 34 33 32 32 31
1 1 1 2 2 2 1 1 3 5 8 9 5 2 3 1 3 4 4 4 5 5 3 2 4 5 5 5 3 3 3 3 4 3 3 3 0 1 3 5 6 7 8 12 11 9 17 22 21 20 21 27 33 35 35 35 34 34 33 33 32 32 32
5 6 6 5 2 1 3 3 5 6 8 8 6 4 3 3 3 3 4 5 3 6 6 4 4 5 4 5 3 3 2 1 3 3 2 4 3 2 2 4 6 7 8 4 10 11 9 18 24 20 16 19 25 30 33 34 34 35 34 33 33 33 33
7 8 7 6 3 3 5 5 6 8 8 8 7 5 5 5 6 3 6 6 4 5 7 6 6 5 4 5 2 2 2 3 3 3 3 5 5 3 1 4 5 4 6 6 3 9 16 12 17 23 18 15 19 23 25 26 29 32 34 35 34 34 33
4 5 5 4 2 3 6 5 6 9 9 10 10 7 6 9 7 5 6 8 7 6 6 5 5 4 4 5 4 3 2 3 2 1 3 5 5 5 3 3 5 4 2 2 7 8 5 13 10 17 21 18 19 22 23 21 22 25 28 31 34 34 34
5 5 4 4 5 4 6 6 5 9 11 12 10 7 8 10 6 4 6 9 7 4 3 3 4 4 4 3 3 1 2 3 2 1 1 3 5 5 3 2 4 5 5 2 2 8 9 3 10 7 13 21 21 22 23 22 19 19 19 21 26 30 32
5 6 5 6 6 4 5 8 5 7 10 8 5 4 7 6 1 1 6 6 3 3 2 3 3 3 2 1 4 4 3 3 2 2 1 2 4 6 4 2 4 5 6 6 4 5 10 11 6 8 7 16 22 22 22 23 21 19 16 14 16 19 23
4 4 4 5 5 5 6 7 6 1 6 4 0 2 5 5 4 5 6 4 3 4 3 3 3 4 3 4 6 4 2 1 1 2 2 3 4 5 5 3 1 4 4 5 6 7 8 12 14 12 11 16 22 22 22 23 24 23 19 17 16 17 20
3 4 2 2 3 6 4 3 2 1 4 5 5 5 4 2 5 7 5 4 5 5 5 3 3 5 5 6 5 2 2 2 2 1 2 3 4 4 4 5 3 2 3 4 5 8 10 12 15 15 15 18 21 24 25 24 25 26 23 21 21 21 22
3 6 3 4 4 3 4 6 3 3 6 10 9 5 5 4 3 5 4 3 5 7 6 6 6 6 4 3 2 2 2 2 3 3 2 2 2 3 4 5 4 3 1 2 1 2 5 9 11 12 14 18 20 23 26 27 28 28 26 24 24 24 24
2 2 5 5 2 5 7 6 1 4 10 15 12 7 6 5 4 7 6 5 7 7 6 5 4 2 1 2 0 1 1 1 1 2 3 2 1 2 3 4 4 4 4 4 3 3 2 3 7 10 13 16 18 22 27 30 29 29 27 26 27 26 26
2 2 4 1 5 6 6 5 2 6 8 11 11 8 6 4 0 5 6 4 4 3 3 2 2 2 2 3 1 2 1 1 0 1 3 3 2 1 2 3 4 4 4 5 4 4 4 4 5 7 11 13 15 18 25 30 30 30 30 29 29 29 27
2 3 2 2 3 5 7 5 1 4 4 5 7 5 2 4 2 4 6 4 3 2 1 1 2 2 3 4 3 3 3 3 3 3 3 2 1 1 3 4 5 5 5 4 4 5 6 8 8 8 10 12 14 14 15 19 23 27 29 28 29 30 29
2 5 2 2 3 2 5 5 5 3 4 8 8 6 1 4 3 5 6 5 5 3 2 1 1 3 3 3 4 4 4 5 4 4 3 1 2 2 5 6 7 8 8 6 5 5 7 11 12 13 13 14 17 16 13 15 18 22 26 28 29 30 28
2 5 3 2 2 3 6 5 5 6 2 6 7 6 3 5 5 5 6 5 6 5 4 3 3 3 1 4 4 4 4 4 3 3 2 2 4 6 7 7 7 8 7 5 5 5 7 10 12 14 18 19 22 23 20 20 20 19 22 24 23 23 24
2 4 3 2 2 3 4 4 5 5 2 4 8 3 5 6 5 6 6 6 6 5 5 4 4 4 4 5 4 2 3 1 2 4 4 5 7 9 9 9 10 10 9 7 7 8 10 11 12 14 18 24 28 26 22 22 22 23 24 23 19 17 19
3 4 2 2 2 3 4 5 6 4 2 6 5 4 6 4 5 5 5 6 5 5 6 5 4 5 5 3 1 2 5 4 4 6 8 9 10 12 11 11 12 12 11 11 10 12 12 11 15 15 6 23 29 25 22 19 18 22 27 26 22 19 19
3 3 3 0 3 4 5 5 5 3 4 1 4 6 3 3 5 5 4 5 5 5 5 5 5 4 1 2 3 5 6 5 4 6 8 9 11 12 12 12 12 12 12 13 13 13 14 13 16 17 12 19 23 23 22 18 17 20 24 24 22 20 21
2 2 3 2 2 5 4 3 2 3 2 4 5 2 2 2 4 4 4 4 5 5 5 5 5 3 2 5 5 5 6 6 6 6 7 8 9 11 12 11 11 11 12 13 13 13 16 17 18 18 17 18 19 21 21 19 20 23 25 25 23 23 23
3 3 2 3 4 6 3 4 2 3 4 5 5 4 2 2 3 4 4 4 5 6 6 5 4 3 3 5 5 5 5 5 5 6 7 9 10 11 11 10 10 12 12 12 13 15 19 22 22 20 18 18 20 20 19 21 24 26 27 28 27 25 25
3 4 5 5 4 3 2 3 5 4 3 3 5 6 4 2 3 3 4 5 5 6 6 5 4 3 4 5 5 4 5 5 5 7 9 10 11 9 9 9 11 12 12 13 14 17 21 26 27 25 22 19 18 19 21 25 27 28 29 30 29 27 27
2 1 1 2 4 4 3 3 4 4 4 2 4 6 5 3 4 4 4 5 5 6 6 5 4 4 4 5 5 4 5 5 6 8 10 10 10 9 9 9 10 12 13 15 16 18 21 27 30 29 26 23 20 21 24 27 28 29 30 31 30 28 28
2 1 1 2 5 6 5 6 5 5 5 3 4 6 5 5 5 4 5 5 5 5 6 5 5 5 5 6 5 4 5 5 6 8 9 9 9 10 10 9 10 13 15 16 17 18 20 25 29 31 30 28 25 24 26 28 29 30 31 32 32 30 29
2 1 1 5 7 5 4 5 5 4 5 5 4 4 5 5 4 3 4 5 5 5 5 6 6 6 5 6 5 5 5 5 6 7 9 9 11 12 12 12 14 16 16 17 18 19 19 24 30 32 31 29 27 27 27 27 30 31 32 33 33 32 31
3 2 3 6 8 6 6 5 3 2 4 5 4 4 5 5 5 4 3 4 4 5 6 6 7 7 5 5 6 6 6 5 6 8 10 11 13 14 15 15 16 18 18 19 20 20 21 24 29 31 30 28 28 28 27 26 29 31 31 32 32 31 31
2 2 3 4 6 3 0 1 2 2 4 6 6 5 4 4 5 5 5 4 3 5 7 8 8 7 6 6 8 7 6 7 9 11 12 13 14 15 13 12 13 17 19 20 22 21 19 21 25 28 27 27 28 28 26 24 26 28 29 29 28 28 28
4 6 6 5 6 5 4 3 2 2 4 6 7 5 4 4 4 5 6 6 5 5 6 9 10 8 6 9 11 8 7 10 13 14 14 13 11 9 7 8 10 13 15 15 16 15 15 17 22 26 27 27 27 26 23 22 22 24 25 25 25 24 25
3 4 5 5 6 5 5 4 3 4 4 6 6 4 3 3 3 4 5 5 6 6 5 7 11 12 10 12 14 11 9 12 15 15 13 11 9 7 7 9 11 11 12 13 13 14 15 17 20 23 24 24 23 22 21 21 22 22 22 23 23 23 24
4 4 5 5 7 7 6 5 5 4 4 6 5 4 3 4 5 5 5 4 6 9 8 6 10 15 16 15 15 14 12 12 14 15 13 11 12 13 13 13 13 12 13 15 15 15 16 16 16 17 18 18 18 19 21 23 24 24 24 24 25 24 24

ECMWFFLT2_925_spd_135.txt.gz
Wind_Speed
1 2 2 3 4 2 1 3 2 2 2 6 4 1 0 4 2 2 1 1 3 2 2 4 6 6 6 7 6 5 4 2 4 5 6 6 7 8 8 8 10 11 15 20 23 25 27 28 29 30 31 33 34 33 33 33 33 33 34 35 34 32 30
2 1 4 6 4 3 3 2 4 2 2 4 4 2 2 4 1 3 2 2 3 1 1 4 6 6 6 7 6 5 5 4 2 3 5 6 7 7 7 8 10 11 14 19 23 26 28 30 31 32 34 35 35 35 35 35 34 34 35 35 35 34 33
2 3 6 6 6 4 5 4 3 3 2 0 1 2 0 1 1 3 3 2 2 2 3 3 3 4 5 6 6 5 5 5 3 1 1 4 5 4 5 7 8 9 13 18 22 24 28 31 32 33 34 34 35 35 36 36 36 37 37 36 35 34 34
2 5 4 2 2 5 4 3 3 3 3 3 1 1 2 2 2 2 3 3 2 4 4 3 3 5 4 4 5 4 3 4 3 3 2 2 2 1 2 3 5 7 13 21 25 26 27 29 31 32 32 33 35 36 35 35 36 37 36 36 35 34 34
3 1 0 5 5 3 2 2 1 1 2 2 2 1 2 3 3 2 1 1 4 6 3 5 5 5 4 5 4 4 4 3 2 1 1 0 1 1 3 1 2 2 4 9 15 22 27 28 28 30 32 33 34 35 35 35 35 34 34 35 35 35 35
2 3 6 5 8 7 5 4 4 4 3 3 3 1 1 1 3 3 3 2 6 5 3 5 5 5 4 4 4 4 4 4 3 2 2 2 3 3 2 1 4 3 4 9 11 9 12 20 25 27 29 32 33 33 34 35 34 34 34 35 35 35 34
2 7 7 1 5 5 5 3 3 4 3 4 5 2 3 1 2 1 3 1 5 5 3 4 4 4 4 3 3 4 5 4 4 3 2 0 2 3 5 5 5 7 9 9 7 10 13 12 18 24 27 29 32 34 35 34 33 35 35 36 36 36 34
4 6 6 4 3 5 5 2 1 4 2 3 5 4 3 3 2 1 2 1 5 5 3 2 2 2 2 2 2 4 4 4 4 4 3 3 3 4 4 8 7 7 11 12 10 10 13 14 11 16 24 29 31 32 33 34 35 36 36 36 36 35 35
4 4 4 5 4 3 2 1 1 2 3 6 4 1 3 2 3 4 4 3 6 5 3 2 1 1 2 3 3 3 4 3 4 5 3 4 2 5 3 5 7 8 9 9 9 12 15 14 12 11 14 21 28 31 33 33 35 36 36 36 35 34 34
3 3 3 3 2 0 0 1 3 2 4 7 4 2 4 1 2 4 4 4 5 5 4 4 4 2 2 4 4 3 3 3 3 4 4 3 2 3 6 5 4 6 7 9 11 13 15 16 18 15 11 13 19 25 31 34 34 35 36 35 34 34 34
7 6 6 5 3 2 1 2 3 3 3 5 6 4 2 3 3 2 4 5 2 6 5 6 7 4 4 4 4 4 3 3 4 4 3 3 3 2 4 5 5 5 6 7 11 17 16 13 17 22 20 16 17 20 25 32 34 34 34 34 34 34 34
7 7 7 5 3 3 4 4 4 6 5 5 6 5 4 5 6 2 7 5 3 6 6 6 7 6 5 5 6 5 4 3 3 3 4 4 4 3 4 4 5 6 6 7 8 13 16 15 15 17 21 23 19 17 20 26 31 32 32 33 34 34 34
6 5 4 3 3 4 4 5 6 7 7 8 7 6 6 8 7 5 7 7 7 7 6 5 7 6 5 5 5 3 2 1 1 3 4 5 4 5 5 4 5 6 7 6 7 8 10 13 15 16 18 22 22 19 18 22 27 31 32 32 33 34 34
4 5 5 3 4 2 2 4 6 6 10 12 9 5 6 7 5 5 5 8 8 7 5 6 6 4 3 2 1 3 3 3 3 3 4 4 5 5 4 5 5 6 7 7 7 7 7 9 12 15 19 21 23 25 23 21 24 30 32 32 33 33 33
4 4 2 3 4 3 1 5 5 2 8 10 4 2 4 3 2 1 4 5 7 6 4 5 4 2 1 2 5 4 2 2 3 3 3 3 4 5 5 4 5 5 7 7 7 6 5 8 10 13 17 20 21 25 26 25 25 28 31 33 33 33 34
3 4 2 2 3 5 2 6 6 1 5 5 3 2 4 5 3 2 4 2 6 5 3 2 3 4 3 3 4 3 1 1 2 1 0 1 2 3 4 4 4 5 5 5 7 8 7 9 10 12 14 17 21 23 26 28 28 29 31 34 34 34 34
4 4 4 4 5 6 3 5 3 3 5 4 3 2 1 2 5 5 3 4 6 3 3 2 3 4 3 3 2 2 2 2 2 2 2 2 2 2 2 2 3 3 4 6 9 11 11 11 12 12 12 14 19 23 27 29 28 28 30 32 34 35 35
4 5 4 4 3 1 4 6 5 6 6 7 7 3 2 2 1 4 4 4 3 3 5 4 2 3 2 2 2 3 3 3 3 2 3 4 3 2 1 2 3 3 5 8 10 11 12 11 12 14 13 12 14 18 23 27 26 26 26 27 29 32 34
3 2 5 4 3 6 6 5 3 3 7 9 9 3 1 2 2 0 2 2 2 3 4 2 1 2 3 2 3 3 3 3 3 3 2 2 1 1 2 2 3 5 7 10 11 12 12 12 11 12 13 13 13 14 17 22 26 28 28 28 29 31 32
2 1 4 2 6 5 2 5 3 3 5 7 7 3 4 2 1 1 2 3 1 2 4 2 1 2 2 2 3 4 4 3 3 2 2 2 1 1 2 3 4 7 9 11 12 13 13 13 13 13 13 13 13 14 16 19 24 28 28 29 30 28 27
3 3 2 2 3 1 3 2 2 3 3 4 5 2 4 5 2 3 3 2 2 1 2 2 1 1 3 4 4 4 2 2 2 3 2 2 2 2 2 4 5 6 9 11 13 14 14 15 16 16 14 13 13 15 16 19 24 27 27 28 30 29 28
3 4 1 1 1 2 4 5 6 3 4 6 6 5 2 6 3 4 5 4 3 1 1 0 2 3 4 3 4 4 2 2 2 1 2 1 1 2 3 4 4 6 8 11 13 14 15 17 19 18 17 16 15 16 17 20 25 28 27 26 27 29 30
2 4 3 2 3 4 6 7 7 3 4 7 5 5 3 7 5 5 5 5 4 4 3 2 3 4 2 4 5 4 2 2 2 2 3 3 2 2 2 1 3 7 10 11 12 13 15 18 19 18 18 18 17 18 19 21 24 27 28 28 27 27 28
3 4 3 2 3 3 5 6 6 3 4 7 6 3 5 6 5 6 6 5 5 5 4 3 4 3 2 4 4 2 2 4 3 3 4 3 3 3 2 1 4 8 9 9 10 12 14 17 18 18 18 19 20 21 21 22 23 26 28 27 26 24 21
4 4 3 2 3 4 5 6 5 3 2 5 4 4 6 5 6 6 6 6 6 5 6 4 3 4 4 4 3 3 5 5 3 4 5 4 3 2 1 3 5 7 7 8 9 11 13 15 17 17 16 20 25 26 22 22 24 26 25 24 23 23 19
3 3 3 0 3 5 6 5 2 0 2 2 4 6 4 5 7 7 6 6 6 6 6 6 4 3 3 4 4 4 5 5 3 4 5 4 2 1 1 3 5 6 7 9 10 11 13 13 15 15 13 17 24 26 23 23 24 25 24 22 21 22 21
2 2 3 2 3 5 6 5 2 1 3 5 5 3 2 4 6 6 6 6 5 6 6 4 4 4 3 4 5 4 4 5 4 4 4 2 1 2 3 5 6 7 8 9 11 12 14 13 14 14 10 5 9 14 18 22 24 24 23 22 19 19 22
3 3 2 3 5 6 6 6 4 4 4 5 6 6 4 3 4 5 5 5 5 7 6 4 5 5 4 4 4 4 4 4 4 4 4 3 1 2 5 6 7 7 8 9 11 13 15 14 13 13 12 10 8 8 11 18 23 24 24 23 21 22 24
4 4 5 5 4 3 3 4 5 5 4 3 6 7 5 4 4 4 4 5 5 5 5 6 5 4 4 4 4 4 4 4 4 3 3 3 3 4 6 6 7 8 8 9 11 15 16 16 15 14 13 14 15 13 12 17 22 22 24 26 25 25 27
2 2 2 2 0 1 0 1 1 2 4 4 5 6 4 4 5 4 4 5 5 5 6 5 4 4 5 5 5 5 5 4 4 3 4 5 5 5 5 6 6 7 8 10 13 15 17 17 18 17 16 17 17 15 16 21 23 23 25 27 26 26 27
2 1 3 3 0 1 1 2 1 1 2 3 4 6 5 5 5 5 5 4 5 5 6 6 6 5 6 6 5 5 5 4 4 3 4 5 6 6 5 4 5 7 9 11 13 15 17 18 19 20 21 19 18 18 21 24 26 26 26 25 25 27 29
2 3 5 4 1 1 1 1 2 2 3 4 3 2 3 4 4 3 3 4 5 5 5 6 7 6 6 7 6 5 4 4 4 4 5 6 7 6 5 5 7 9 10 11 13 15 16 17 19 22 23 21 20 22 23 24 27 28 26 24 24 26 30
1 1 2 0 3 5 5 3 3 2 2 4 3 3 4 5 5 5 5 4 4 6 6 6 7 7 6 6 7 7 5 4 4 5 7 9 10 9 7 8 10 11 11 12 13 14 14 15 19 22 23 21 21 22 24 26 30 32 30 28 27 28 30
1 3 6 5 4 1 4 5 4 4 3 4 5 4 4 5 4 5 5 5 4 5 7 7 8 8 6 6 7 7 5 5 7 8 10 11 10 10 9 9 11 13 12 12 13 15 15 17 20 22 22 21 21 22 24 26 29 31 31 30 28 28 29
5 7 7 6 5 4 6 6 4 5 3 5 6 4 4 4 4 5 6 5 4 4 5 7 9 8 7 9 10 7 5 7 10 11 13 12 9 9 10 9 9 10 10 10 12 14 16 18 20 21 20 20 20 20 22 24 27 29 30 29 26 25 26
4 5 7 7 4 4 5 5 4 4 2 4 5 4 3 3 4 5 5 5 5 6 4 5 9 11 11 11 11 8 6 9 12 13 13 9 7 8 10 9 5 5 6 9 12 13 15 16 17 18 19 18 18 18 19 22 25 27 27 27 26 24 24
3 3 5 5 3 3 4 3 1 1 0 4 5 4 3 4 4 5 5 4 6 8 7 5 8 14 15 14 12 11 10 10 13 13 11 7 7 9 10 8 7 6 7 9 10 11 12 12 13 15 17 15 14 14 15 18 22 24 25 26 25 24 24

ECMWFFLT2_925_spd_138.txt.gz
Wind_Speed
3 2 4 2 3 2 1 2 2 2 3 6 5 2 1 3 2 2 1 2 4 2 2 4 4 4 4 5 6 5 5 4 1 3 5 5 6 7 6 7 8 10 14 18 20 22 24 24 25 27 29 30 31 31 31 32 32 31 32 33 31 30 29
3 1 5 5 3 3 3 2 4 3 3 4 4 2 3 3 1 3 1 2 4 1 2 3 4 4 5 6 5 4 5 5 3 2 3 4 5 5 4 4 5 8 12 17 21 23 26 28 29 29 30 31 32 32 31 32 32 32 33 33 31 30 30
2 5 6 4 5 4 4 4 3 2 3 1 1 2 1 0 1 3 3 2 3 3 3 2 0 1 3 5 5 5 5 4 4 4 3 4 4 3 3 2 2 3 4 5 7 7 9 15 21 27 31 31 30 30 31 31 33 33 34 33 32 30 31
2 5 4 1 3 5 5 3 2 2 2 3 1 2 2 2 1 2 3 3 2 5 5 4 5 5 4 3 4 4 4 4 3 4 4 3 3 3 3 3 3 3 6 7 5 4 1 5 11 14 21 27 29 30 29 30 31 31 31 32 31 31 31
2 1 1 3 4 3 3 2 2 1 2 2 2 2 2 2 3 2 1 2 4 5 4 6 6 5 5 4 3 3 3 4 4 4 4 4 2 2 3 5 4 4 8 13 15 15 16 19 18 14 16 22 27 29 29 29 29 29 30 31 32 32 32
1 4 5 4 5 4 5 4 3 3 3 3 3 1 2 1 3 3 3 1 6 5 3 4 5 4 4 4 3 3 4 3 3 4 4 4 4 3 4 3 4 5 8 14 17 18 19 22 24 21 18 20 23 26 29 29 29 29 30 31 32 33 32
3 7 7 2 3 3 4 3 3 4 4 4 5 2 3 1 2 1 3 1 6 5 2 2 3 4 4 3 3 3 3 2 2 4 4 4 3 3 4 3 2 3 8 14 18 19 18 19 22 23 22 21 23 26 27 28 29 30 31 32 33 33 33
4 6 5 3 3 5 4 1 2 4 2 3 5 4 3 3 3 2 3 1 5 5 2 1 1 2 3 2 3 3 3 1 1 3 3 4 4 4 4 3 2 3 4 9 14 17 20 21 21 22 23 23 25 26 26 27 29 31 31 31 31 32 32
5 5 5 5 4 2 2 1 1 3 4 6 4 2 3 2 3 4 4 2 6 5 3 2 2 3 4 4 3 3 3 0 1 2 3 3 4 4 5 4 3 2 2 4 7 12 18 22 23 24 24 23 25 27 28 28 30 30 31 31 30 31 32
2 1 2 3 2 1 0 1 2 2 4 7 4 2 4 1 3 4 4 4 5 6 4 2 2 2 3 6 4 3 3 1 1 2 3 3 3 3 5 5 4 2 1 1 4 7 11 17 22 25 25 23 24 27 29 30 31 30 30 30 30 30 31
7 6 7 6 3 3 0 1 1 3 4 5 5 4 2 3 4 2 5 5 3 7 6 4 5 3 4 6 4 4 3 1 1 2 3 3 3 3 4 4 4 3 2 0 2 5 8 12 15 20 23 23 24 25 28 30 31 31 30 29 29 30 30
7 7 5 2 3 3 3 2 2 3 4 5 5 4 4 5 6 2 7 5 3 7 6 6 6 5 5 5 5 4 3 1 1 2 2 3 3 3 3 3 4 4 3 2 1 2 6 9 12 14 17 21 23 24 25 27 29 30 30 29 29 29 29
4 4 3 1 3 3 3 4 5 4 5 7 7 6 6 7 7 5 5 6 6 7 6 6 5 4 4 4 4 2 1 1 2 2 2 3 4 4 4 4 4 4 3 2 2 3 5 7 10 13 15 19 21 23 23 24 26 28 29 29 29 29 28
1 2 4 4 5 3 1 3 5 5 6 9 8 5 5 5 4 4 4 7 8 8 6 4 2 3 4 2 1 1 2 2 2 2 2 2 2 3 4 4 4 4 4 4 3 4 5 6 9 12 15 18 20 23 24 24 25 27 28 29 29 29 29
2 2 1 3 3 3 3 3 3 1 4 5 4 2 4 3 1 2 4 3 6 7 4 3 2 3 3 4 3 2 1 1 2 2 2 2 2 3 4 4 4 4 5 5 5 5 6 7 8 10 14 16 19 22 24 24 25 25 26 28 29 30 31
2 2 4 4 4 4 1 5 4 3 4 4 4 3 5 5 4 4 3 1 5 5 2 3 3 3 4 3 2 2 1 1 1 2 3 3 4 4 4 4 4 5 6 6 6 8 9 9 9 9 11 13 16 21 23 25 25 24 24 26 29 30 31
3 3 3 4 4 5 3 5 4 5 4 3 3 2 4 6 6 5 4 5 5 4 1 3 3 4 4 2 2 2 1 1 2 3 4 4 4 3 3 5 5 4 5 7 8 11 11 11 11 11 11 11 14 17 20 23 25 25 25 26 28 30 31
3 4 2 3 2 0 4 6 4 6 5 5 5 3 4 5 4 3 4 3 3 2 1 4 3 3 3 2 2 3 3 2 3 3 4 4 4 4 4 5 5 5 7 9 12 14 15 14 13 13 12 12 13 15 17 20 22 24 25 26 27 29 30
3 1 4 3 3 6 6 5 4 5 5 5 5 2 1 4 3 2 1 1 3 2 3 3 3 2 3 3 3 3 3 3 3 3 4 4 4 4 5 5 5 6 9 11 14 15 16 15 15 14 13 13 13 14 15 17 19 22 24 26 27 28 29
2 2 3 3 6 7 5 6 4 2 3 4 4 3 3 5 5 4 4 4 4 3 3 2 2 2 2 1 1 3 4 4 4 3 4 4 4 4 5 6 7 9 12 14 15 15 15 15 15 15 15 15 16 16 16 16 18 20 22 25 27 27 28
2 3 2 2 3 4 4 4 3 3 4 4 5 2 4 6 5 5 5 4 4 4 4 2 1 0 1 3 3 2 3 4 4 4 4 5 5 6 7 9 11 13 15 16 16 15 15 16 16 16 17 17 18 18 17 17 18 19 21 23 25 26 28
2 4 1 1 1 2 5 7 6 3 3 5 6 4 3 6 5 6 5 5 5 4 4 3 0 2 3 2 4 3 1 3 4 3 4 5 5 7 8 11 13 15 16 16 16 17 18 18 18 18 18 19 18 18 19 18 18 20 21 22 24 25 26
2 4 3 3 4 5 7 8 7 3 3 5 5 4 4 6 6 7 5 6 6 4 5 4 2 4 2 3 5 3 2 4 3 3 4 4 4 7 8 10 13 14 15 15 17 18 18 19 20 20 20 20 19 19 21 20 19 21 21 22 23 24 24
3 4 3 3 3 4 5 6 4 2 4 6 7 2 5 6 6 6 6 6 6 5 5 4 4 4 4 4 4 3 4 3 2 2 3 3 4 8 9 10 12 13 14 15 16 17 17 18 19 20 20 21 20 22 24 23 22 23 22 21 21 23 23
3 4 3 2 3 4 5 5 4 4 3 4 4 5 7 5 6 6 6 7 6 6 7 5 3 4 4 3 3 5 5 4 3 3 5 5 7 9 8 9 11 12 14 14 14 15 16 17 18 18 18 18 20 25 27 26 26 26 24 22 21 22 23
3 3 3 0 3 5 5 3 3 4 4 2 5 6 4 5 7 6 5 6 5 6 7 5 3 3 2 3 5 6 6 5 5 5 7 8 7 6 6 8 9 11 12 12 13 14 15 16 16 17 16 15 18 23 26 27 30 29 25 22 21 21 22
3 2 3 2 2 5 7 7 3 2 4 5 5 3 1 3 6 7 5 5 5 6 5 4 4 4 5 6 6 5 5 5 5 6 6 5 4 4 6 7 7 8 9 10 12 13 14 15 16 16 15 15 15 17 21 24 25 24 22 22 21 22 23
4 3 2 3 4 6 7 8 5 5 5 5 5 6 3 2 3 5 5 5 5 7 6 5 5 6 6 6 6 5 5 5 4 5 4 3 3 4 5 6 6 7 7 9 11 12 13 14 14 14 14 13 12 12 13 15 14 13 16 20 21 22 24
4 5 6 6 4 4 5 4 3 4 4 3 5 7 5 3 4 4 5 5 6 6 7 7 6 6 7 7 6 5 6 5 4 3 2 1 2 4 4 5 6 6 6 8 10 11 12 13 14 15 14 13 12 13 11 6 5 9 15 19 22 22 24
3 3 3 3 2 2 3 2 2 3 3 3 5 5 4 4 5 4 4 5 6 6 7 8 6 7 8 8 7 6 6 5 3 2 0 1 2 3 5 5 5 5 6 8 10 12 14 16 17 16 15 14 14 14 11 6 5 9 13 17 18 20 22
2 2 3 4 3 3 3 1 1 2 3 3 4 5 4 4 5 5 3 4 6 7 7 7 7 7 9 9 7 6 5 4 2 1 1 1 2 3 4 4 4 6 8 10 11 12 15 17 18 17 17 17 16 15 14 12 11 11 11 11 12 13 14
3 3 6 6 4 4 3 2 3 3 4 4 4 3 3 4 5 4 2 4 6 6 6 6 7 8 9 9 7 5 4 3 2 2 0 0 2 3 4 4 6 8 10 11 12 13 15 17 19 19 19 19 18 17 17 15 16 18 17 17 19 21 20
2 3 5 3 3 4 5 4 4 4 4 4 5 4 5 6 6 5 3 2 4 6 6 6 7 8 9 8 7 6 4 3 3 2 2 2 3 4 5 6 8 10 11 12 14 16 17 18 19 19 21 21 19 19 19 19 21 24 24 23 24 26 27
2 4 5 3 2 1 5 5 6 5 4 5 6 5 5 6 6 6 5 4 3 4 6 7 8 8 8 7 7 5 4 4 5 5 5 5 4 5 6 7 10 11 13 14 15 17 18 19 19 20 21 20 20 20 20 21 24 27 28 28 28 28 28
4 6 6 4 3 3 5 5 5 4 3 5 6 6 6 6 6 6 7 6 4 3 4 7 8 7 7 8 8 5 4 6 7 7 7 6 6 6 5 7 10 11 12 14 16 17 18 19 20 21 21 21 20 20 20 22 25 27 29 29 27 26 27
4 5 6 6 4 3 4 3 5 4 4 5 5 4 5 5 5 5 6 6 6 5 4 5 7 8 9 10 10 7 5 7 10 10 8 5 6 5 2 5 8 9 11 14 16 17 18 19 20 20 20 20 19 20 21 23 25 29 30 29 28 27 27
4 4 3 5 4 2 2 1 3 2 2 4 4 4 4 5 6 6 6 5 6 7 6 4 5 10 12 12 10 9 8 8 11 11 7 5 5 4 2 5 7 8 10 13 16 17 19 20 19 19 19 19 18 19 22 24 26 28 30 29 28 27 27

ECMWFFLT2_925_spd_141.txt.gz
Wind_Speed
2 1 3 2 1 3 3 2 3 1 1 2 2 2 1 1 2 1 1 3 2 1 2 2 2 3 3 2 2 2 4 3 2 1 2 3 5 6 8 9 9 11 12 15 16 14 13 12 13 15 17 19 23 24 25 28 29 29 30 31 31 30 29
4 2 3 6 4 0 2 3 4 4 1 0 1 1 1 1 3 1 1 4 3 2 2 1 3 4 3 2 2 2 2 3 3 3 2 2 3 5 6 7 8 9 11 14 13 11 12 14 13 14 14 16 21 24 25 26 27 28 29 30 30 30 30
3 2 2 6 6 4 2 3 5 2 1 1 1 1 1 1 2 1 1 3 3 4 3 1 4 6 4 2 1 1 2 3 3 3 3 3 2 3 4 6 6 7 10 13 14 15 18 19 17 17 17 16 18 20 21 23 25 27 28 26 25 28 29
0 1 2 3 4 5 4 5 4 1 1 1 1 0 0 1 1 1 1 2 2 3 2 2 5 7 5 3 1 1 2 2 2 3 3 4 3 2 2 4 5 7 9 11 14 17 20 22 21 18 18 19 19 19 18 18 20 22 23 22 23 27 28
2 2 1 2 2 4 3 4 4 1 2 1 1 1 1 1 1 1 2 2 1 1 1 3 5 6 5 2 1 1 2 2 2 3 4 4 4 3 1 1 2 5 7 10 12 14 18 23 23 18 17 19 19 19 19 20 19 18 20 20 21 25 26
2 0 2 2 2 0 1 3 3 3 4 3 2 1 0 1 1 1 1 3 2 2 1 3 2 3 3 1 1 1 2 3 3 3 4 5 4 3 2 1 1 2 4 8 11 13 16 20 20 19 18 18 17 19 21 22 21 20 21 20 21 25 27
1 3 4 1 2 1 2 1 1 3 3 2 3 2 2 2 0 0 0 2 1 2 1 2 1 1 1 1 2 1 2 2 2 3 4 4 4 3 3 2 1 1 3 5 9 12 15 18 20 21 20 17 17 18 19 21 23 24 23 21 23 28 30
0 1 2 2 1 2 2 2 2 2 1 1 1 1 1 3 3 2 2 2 1 2 1 1 1 0 2 2 2 1 1 1 2 3 3 4 4 4 3 3 1 1 3 4 7 9 12 14 16 18 18 17 16 17 19 22 26 29 27 24 24 28 29
2 2 2 2 2 2 1 2 2 2 4 5 4 3 1 2 2 2 2 3 0 2 1 1 2 2 3 3 2 1 1 1 2 2 3 4 5 5 4 3 2 1 2 4 6 7 9 10 11 12 14 15 14 16 18 21 25 30 30 27 26 27 27
4 4 3 2 2 2 1 2 3 3 5 6 4 3 2 3 2 2 3 2 0 1 2 4 4 4 4 3 3 1 0 1 2 3 3 4 4 5 6 5 3 2 2 3 5 6 8 8 9 10 11 12 12 14 16 18 21 26 28 26 25 27 27
4 3 2 0 1 3 3 3 5 4 4 4 4 2 2 2 3 4 5 2 2 2 3 4 5 5 5 4 2 2 1 1 1 2 2 3 3 4 5 5 4 3 2 3 4 5 7 8 10 10 11 12 12 12 14 15 16 20 24 25 26 27 25
1 1 2 1 1 3 4 5 7 6 5 6 5 4 2 4 4 4 4 3 3 5 2 3 4 4 4 3 2 2 2 2 1 1 2 2 2 2 3 4 4 4 3 3 3 4 5 7 9 10 13 15 16 15 16 16 14 15 18 21 26 28 24
0 1 1 0 1 1 2 4 6 6 7 8 8 5 4 7 5 3 2 6 6 5 2 0 1 1 1 0 2 2 2 3 2 1 1 1 2 2 3 4 5 5 5 5 5 5 5 6 7 8 10 13 16 18 20 20 18 16 15 16 22 26 25
2 1 1 1 1 2 2 2 3 5 7 9 8 4 5 7 4 2 2 6 7 4 1 2 1 2 2 2 3 3 3 3 2 2 2 2 3 3 3 4 5 6 6 6 7 8 7 7 7 7 7 8 11 15 17 19 20 19 16 16 18 22 25
3 1 1 1 1 2 3 2 1 3 5 6 6 4 4 5 4 1 3 4 5 2 2 3 2 2 3 4 3 2 2 2 2 2 3 3 3 3 4 4 5 6 7 7 8 9 9 8 8 8 8 8 9 10 12 14 17 19 18 17 19 21 24
3 1 2 3 2 1 3 4 4 6 5 3 4 4 5 7 6 6 5 5 4 1 3 4 4 3 3 4 3 2 2 3 3 3 3 3 4 4 4 5 5 6 7 8 9 10 10 9 9 9 9 9 9 9 10 11 12 15 17 18 19 21 23
4 2 1 3 4 3 4 4 4 7 5 2 3 3 5 7 6 5 5 4 1 4 4 5 5 5 4 3 3 3 2 4 4 3 3 3 4 5 5 5 6 7 8 9 10 11 11 10 10 10 9 9 10 10 10 10 10 12 15 17 18 20 21
3 3 1 3 5 6 4 1 0 3 4 4 4 4 4 6 5 2 3 0 4 4 5 5 6 6 4 3 3 2 3 4 3 3 3 3 4 5 6 6 7 8 9 10 10 11 11 11 11 11 10 10 10 10 10 9 9 11 13 16 18 19 21
2 3 2 5 7 5 0 2 1 2 3 4 4 4 4 6 6 3 3 1 4 4 4 3 4 4 3 3 3 3 4 4 2 2 3 3 4 5 6 7 8 9 10 11 11 11 11 12 12 11 11 11 10 11 11 10 10 11 12 15 17 19 20
2 3 5 6 3 1 1 1 1 3 3 4 4 4 5 8 9 7 4 2 5 5 4 4 3 3 4 3 4 5 5 5 4 3 3 3 4 5 7 8 9 10 11 12 12 11 11 12 12 12 12 11 10 10 10 10 12 13 13 15 16 18 19
1 4 6 3 3 2 3 2 3 4 4 5 4 3 3 6 7 7 4 5 7 7 5 5 5 4 4 3 3 5 6 6 5 5 4 4 5 6 8 9 10 11 12 11 11 12 12 13 13 13 12 12 11 11 11 10 11 12 14 15 16 17 18
1 2 4 3 3 5 5 4 4 3 2 3 3 2 1 4 6 7 6 7 9 8 7 7 6 5 4 3 1 4 7 7 6 6 5 5 6 7 9 10 11 12 11 11 12 13 14 14 14 14 14 14 13 12 11 11 11 12 13 14 15 17 18
3 3 4 4 5 4 3 3 5 4 3 4 4 2 4 4 8 9 7 8 9 9 8 8 6 4 3 3 1 4 7 7 6 5 5 5 6 7 9 10 11 11 11 12 13 13 13 14 15 15 14 13 12 12 12 12 12 13 14 15 17 19 21
4 5 4 3 3 2 1 2 3 4 4 5 5 4 3 4 9 10 9 8 9 8 7 6 5 4 3 1 1 4 6 6 6 5 5 5 6 7 9 9 10 11 11 12 13 13 13 15 16 14 13 12 12 13 13 14 14 14 16 16 17 19 22
5 6 4 2 2 2 2 2 4 4 4 5 6 4 1 4 8 8 8 8 8 8 7 5 3 2 1 1 3 5 5 5 5 5 5 5 5 7 8 8 9 11 11 12 12 12 13 14 14 13 13 13 14 14 14 15 16 16 16 17 17 18 21
3 4 3 2 1 2 3 4 3 3 4 5 5 2 1 4 8 8 7 7 7 7 7 5 2 2 3 3 4 5 5 4 5 4 4 5 5 6 8 8 9 10 11 11 12 12 12 13 13 13 12 13 14 14 15 16 18 18 18 19 18 19 19
2 2 4 4 2 3 8 9 4 3 4 2 3 3 2 2 7 8 6 6 6 7 6 4 3 4 4 4 4 5 5 4 4 4 4 4 5 6 7 8 9 9 10 10 10 11 12 13 12 12 11 12 13 13 14 17 19 20 20 19 18 18 19
2 3 5 2 1 3 10 9 4 5 3 0 2 5 4 2 5 6 5 4 5 6 6 5 5 5 5 5 6 6 5 5 5 4 4 3 4 5 6 7 8 8 8 8 9 10 11 12 12 10 10 11 12 13 14 17 18 19 18 16 14 15 16
2 2 2 1 3 2 6 3 1 1 2 1 2 4 5 4 4 4 4 5 6 5 5 6 6 5 5 6 7 6 6 5 4 3 2 2 3 4 4 5 6 6 6 6 8 9 11 11 11 9 9 10 11 13 14 15 15 15 15 14 12 12 14
2 3 2 2 2 2 5 4 2 1 0 2 3 3 5 5 5 4 4 5 6 6 6 6 5 5 6 7 7 7 6 5 4 2 1 1 2 3 3 5 5 5 5 6 7 8 10 11 10 9 9 9 10 11 12 12 11 11 9 8 7 6 7
1 1 0 2 3 2 3 5 3 2 2 2 2 1 3 4 5 5 4 4 7 8 7 7 6 6 7 7 7 6 6 5 4 2 1 1 2 3 3 4 4 4 5 6 6 8 9 10 10 10 9 9 10 10 10 9 9 8 7 7 8 8 7
1 3 3 4 4 4 3 4 4 2 2 3 2 0 2 5 6 5 4 5 7 7 7 6 6 6 7 8 7 6 5 5 4 2 1 2 2 3 3 4 4 5 5 5 5 7 8 8 9 10 11 11 11 11 11 9 8 8 12 14 15 17 18
3 4 4 3 4 4 4 4 4 2 2 4 4 2 4 7 7 7 5 4 4 6 6 6 6 6 7 8 7 6 6 4 4 3 3 3 3 4 4 4 5 6 5 4 6 7 7 7 9 11 13 13 12 11 11 11 10 13 16 17 19 21 24
4 2 2 1 2 3 3 4 4 3 3 5 5 5 6 7 8 8 7 5 3 3 4 6 7 7 7 8 8 6 5 4 4 5 4 4 5 5 5 5 6 6 5 5 6 6 7 8 9 11 14 14 13 12 12 13 15 17 19 21 23 24 26
3 3 2 1 2 2 2 1 2 4 5 6 7 6 6 7 7 7 8 6 4 3 3 4 6 6 7 8 9 6 4 5 6 6 5 6 6 6 5 6 6 6 6 7 7 7 7 8 10 12 14 15 16 15 14 14 16 18 19 22 25 26 28
4 3 2 1 4 4 3 2 1 4 5 5 6 6 6 6 6 6 6 6 5 5 5 4 5 6 7 9 9 6 5 7 8 7 6 6 6 5 5 6 6 6 7 9 9 10 9 9 10 13 16 16 16 18 17 16 18 19 20 22 24 26 27
5 4 2 2 5 5 2 2 1 3 3 3 4 5 5 6 7 6 5 4 4 6 6 5 5 6 8 9 8 7 7 8 9 9 8 6 5 4 6 7 7 6 6 9 12 13 13 12 12 14 16 15 15 18 21 22 22 22 22 22 23 23 24